Showing default

JILIN-01 GAOFEN 3F, 46458

Orbit data source: Space-Track

JILIN-01 GAOFEN 3F, 46458 is a payload satellite owned by Changguang WJ (CN) in SSO that was launched on Tue, 15 Sep 2020 UTC via a CHANG ZHENG 11 launch vehicle from the Yellow Sea Launch Area, China (YSLA). Payload-class satellites include a variety of spacecraft equipped with specific instruments for various scientific and technological missions. These include communications satellites like Starlink; space stations such as the ISS; scientific satellites like the Hubble; Earth observation satellites from companies like Planet Labs, Umbra, and HawkEye 360; GPS; miniature CubeSats for education and research; and military/defense satellites.

Loading next visibility...
Identifier
46458, 2020-065E
Orbit
SSO
Last TLE update
5 hours ago
Origin
Flag of CNCGSTL (CN / PRC)
Manufacturer
Changguang WJ
Mission
Operational Commercial Imaging
Bus & Motor
JL-1, Unknown motor
Mass
42 kg wet, 42 kg dry
Launch date (UTC)
2020-09-15 (5 years ago)
Launch vehicle
CHANG ZHENG 11
Launch site
Yellow Sea Launch Area, China (YSLA)
Object type
Payload
Rocket body
Debris
Shape & HBR
Box + 2 Pan, 1.5 m
Radar Cross Section
2.000 m², Medium (>0.1 m² and < 1m²)

Expand to show TLE details & history

TLE from 5 hours ago
0 JILIN-01 GAOFEN 3F
1 46458U 20065E   25130.48337659  .00019248  00000-0  56519-3 0  9999
2 46458  97.2819 175.5029 0024242 172.3788 187.7829 15.34885698257502
Epoch: 2025-05-10T11:36Z
Definitive object data (Epoch: 2025-05-10T11:36:03.737Z)
Latitude
-0°
Longitude
132.96281°
Altitude
480.806 km
Speed
7.616 km/s
True Right ascension
11h 42m 00s
True Declination
0° 00' 00"
Sunlit
Object was in full shadow at TLE epoch
Visualization TLE readout
Latitude
80.849°
Longitude
5.25198°
Altitude
470.619 km
Speed
7.64 km/s
Apparent Right ascension
12h 22m 43s
Apparent Declination
33° 29' 47"
Sunlit
Object is in daylight
Visualization observer readout
Local Sidereal Time
00:57:07
Azimuth
7.461° NNE
Elevation
-16.158°
Doppler factor
1
Orbital elements
Apogee altitude
474.773 km
Perigee altitude
441.628 km
Semi-major axis
6,836.338 km
Eccentricity
0.0024242
Inclination
97.2819°
RAAN
175.5029°
Arg. of periapsis
172.3788°
True anomaly
187.74539°
Mean anomaly
187.7829°
Eccentric anomaly
187.76414°
Mean motion
3.83979 °/min
BSTAR
0.00056519
Orbital period
93.76 mins
Loading maneuver chart data...
Loading SW <> Apogee altitude chart data...
Loading historical data...
Loading historical data...
Loading historical data...
Loading historical data...
Loading historical data...
Loading historical data...
Loading historical data...

JILIN-01 GAOFEN 3F Visibility forecast

Observer location: undefined°, undefined°

Span
Click to sort rows by Start time (UTC) header in descending order
Start Az.
Max El. time (UTC)
Max El. Az.
Max El.
End time (UTC)
End Az.
5 mins2025-05-11 03:22:39.909Z193.206° SSW2025-05-11 03:25:39.909Z286.304° WNW32.867°2025-05-11 03:27:39.909Z328.816° NNW
4 mins2025-05-11 16:20:39.909Z328.665° NNW2025-05-11 16:21:39.909Z297.053° NW28.104°2025-05-11 16:24:39.909Z223.999° SW
|